Weather History for Arlington, TX

Change the Weather History Date:

Sunday, January 5, 2014

  Actual Average (KRBD) Record (KRBD)
Temperature  
Mean Temperature 36 °F -  
Max Temperature 48 °F 54 °F 77 °F (2008)
Min Temperature 21 °F 36 °F 21 °F (2014)
Degree Days  
Heating Degree Days 30    
Moisture  
Dew Point 19 °F    
Average Humidity 57    
Maximum Humidity 72    
Minimum Humidity 41    
Precipitation  
Precipitation 0.00 in - - ()
Sea Level Pressure  
Sea Level Pressure 30.18 in    
Wind  
Wind Speed 18 mph (NW)    
Max Wind Speed 29 mph    
Max Gust Speed 39 mph    
Visibility 10 miles    
Events      
Averages and records for this station are not official NWS values.
T = Trace of Precipitation, MM = Missing Value Source: NWS Daily Summary

Daily Weather History Graph

Daily Weather History Graph

Search for Another Location

Airport:

Trip Planner

Search our weather history database for the weather conditions in past years. The results will help you decide how hot, cold, wet, or windy it might be!

Date:

Astronomy

Jan. 05, 2014 Rise Set
Actual Time 7:31 AM CST 5:36 PM CST
Civil Twilight 7:04 AM CST 6:03 PM CST
Nautical Twilight 6:33 AM CST 6:34 PM CST
Astronomical Twilight 6:03 AM CST 7:04 PM CST
Moon 10:30 AM CST (1/5) 10:46 PM CST (1/5)
Length of Visible Light 10h 59m
Length of Day
10h 05m
Waxing Crescent, 25% of the Moon is Illuminated
Jan 5
Waxing Crescent
Jan 7
First Quarter
Jan 15
Full
Jan 23
Last Quarter
Jan 30
New

Hourly Weather History & Observations

Time (CST) Temp. Windchill Dew Point Humidity Pressure Visibility Wind Dir Wind Speed Gust Speed Precip Events Conditions
12:53 AM 48.9 °F - 32.0 °F 52% 29.79 in 10.0 mi NW 10.4 mph - N/A   Clear
1:53 AM 39.0 °F 29.3 °F 28.9 °F 67% 29.84 in 10.0 mi NW 19.6 mph 27.6 mph N/A   Clear
2:53 AM 36.0 °F 26.0 °F 26.1 °F 67% 29.89 in 10.0 mi NW 17.3 mph 25.3 mph N/A   Clear
3:30 AM 33.8 °F 22.5 °F 24.8 °F 70% 29.92 in 10.0 mi NW 19.6 mph 27.6 mph N/A   Mostly Cloudy
3:53 AM 33.1 °F 21.9 °F 25.0 °F 72% 29.92 in 10.0 mi WNW 18.4 mph 29.9 mph N/A   Overcast
4:53 AM 33.1 °F 22.6 °F 25.0 °F 72% 29.95 in 10.0 mi WNW 16.1 mph 24.2 mph N/A   Overcast
5:53 AM 33.1 °F 21.2 °F 24.1 °F 70% 29.99 in 10.0 mi NW 20.7 mph 28.8 mph N/A   Overcast
6:53 AM 30.9 °F 18.4 °F 21.0 °F 67% 30.04 in 10.0 mi NW 20.7 mph 39.1 mph N/A   Overcast
7:53 AM 30.9 °F 18.4 °F 19.9 °F 64% 30.08 in 10.0 mi NW 20.7 mph 27.6 mph N/A   Overcast
8:04 AM 30.2 °F 16.5 °F 19.4 °F 64% 30.09 in 10.0 mi WNW 24.2 mph 32.2 mph N/A   Overcast
8:53 AM 30.0 °F 17.2 °F 18.0 °F 61% 30.12 in 10.0 mi NW 20.7 mph 36.8 mph N/A   Partly Cloudy
9:53 AM 30.9 °F 19.1 °F 18.0 °F 59% 30.18 in 10.0 mi WNW 18.4 mph 29.9 mph N/A   Clear
10:53 AM 30.9 °F 17.8 °F 16.0 °F 54% 30.20 in 10.0 mi NW 23.0 mph 35.7 mph N/A   Clear
11:53 AM 35.1 °F 23.8 °F 18.0 °F 50% 30.21 in 10.0 mi NW 20.7 mph 32.2 mph N/A   Clear
12:53 PM 37.0 °F 26.7 °F 18.0 °F 46% 30.19 in 10.0 mi NNW 19.6 mph 28.8 mph N/A   Clear
1:53 PM 37.9 °F 27.3 °F 17.1 °F 43% 30.20 in 10.0 mi NW 21.9 mph 33.4 mph N/A   Clear
2:53 PM 39.0 °F 28.0 °F 17.1 °F 41% 30.22 in 10.0 mi NW 25.3 mph 33.4 mph N/A   Clear
3:53 PM 39.0 °F 27.4 °F 17.1 °F 41% 30.25 in 10.0 mi NW 28.8 mph 33.4 mph N/A   Clear
4:53 PM 36.0 °F 26.0 °F 16.0 °F 44% 30.29 in 10.0 mi NNW 17.3 mph 28.8 mph N/A   Clear
5:53 PM 33.1 °F 21.2 °F 16.0 °F 50% 30.33 in 10.0 mi NNW 20.7 mph 32.2 mph N/A   Clear
6:53 PM 30.9 °F 19.8 °F 15.1 °F 52% 30.38 in 10.0 mi NNW 16.1 mph - N/A   Clear
7:53 PM 28.9 °F 15.8 °F 12.9 °F 51% 30.42 in 10.0 mi NNW 20.7 mph 26.5 mph N/A   Clear
8:53 PM 28.0 °F 13.9 °F 12.0 °F 51% 30.47 in 10.0 mi NNW 23.0 mph 29.9 mph N/A   Clear
9:53 PM 25.0 °F 10.9 °F 10.0 °F 53% 30.51 in 10.0 mi NNW 19.6 mph 28.8 mph N/A   Clear
10:53 PM 23.0 °F 9.6 °F 9.0 °F 55% 30.54 in 10.0 mi North 16.1 mph - N/A   Clear
11:53 PM 21.0 °F 7.1 °F 8.1 °F 57% 30.57 in 10.0 mi NW 16.1 mph - N/A   Clear